map of RIH home
RIH - Airport
Location
City:  Río Hato, Coclé, Panamá
Name:Scarlett Martinez International Airport
Old (Alt.):Río Hato International Airport
ICAO:MPSM
IATA:RIH

Details
Type:Airport (Aerodrome, Airfield)
Use:Public/Civil, International (customs port of entry)
Latitude:8°22'48"N (8.380000)
Longitude:80°07'46"W (-80.129443)
Elevation:119 ft (36 m)
Variation:3.87°W (WMM2015 magnetic declination)
-0.14° annual change
Runways:1
Longest:7874 × 148 ft (2400 × 45 m), paved

Time
Time Zone:UTC-5
Local Time:

Weather
METAR:MPSM 290300Z 00000KT 9999 SCT016 SCT080 25/24 Q1010
TAF:MPSM 282300Z 2900/3006 00000KT 9999 SCT018 SCT100
TEMPO 2900/2904 33004KT PROB30
TEMPO 2819/2823 16006KT 7000 -TSRA SCT015CB BKN090
TEMPO 2923/3003 30005KT

Related Locations
Nearby:
Farthest:CCK: 12104 mi / 19479 km
West Island (Pulau Panjang) [Cocos (Keeling) Islands], CC

Find:

   beyond  
but within

Other Information
Maps:
NOTAMs:
Links:
Sources:

  
flag of Panamá
flag of Coclé
  

Sectional Chart

Flight Planning
at skyvector.com

Satellite Image

Google Maps Satellite view

 

Copyright © 2004-2017 Karl L. Swartz. All rights reserved.
The Great Circle Mapper name and logo are trademarks of the Great Circle Mapper.
All other trademarks mentioned herein belong to their respective owners.
Please see credits for attibutions and further copyright information.

  Follow gcmap on Facebook Follow gcmap on Twitter Follow gcmap on Google+ GCmap on LinkedIn

hCard Microformat

Geo Microformat